Year,Month,Day,Hour,Minute,Value (Times are PST for temperature in C)
2019,03,31,00,00,8.50
2019,03,31,00,01,8.50
2019,03,31,00,02,8.50
2019,03,31,00,03,8.50
2019,03,31,00,04,8.50
2019,03,31,00,05,8.50
2019,03,31,00,06,8.40
2019,03,31,00,07,8.50
2019,03,31,00,08,8.50
2019,03,31,00,09,8.50
2019,03,31,00,10,8.50
2019,03,31,00,11,8.40
2019,03,31,00,12,8.40
2019,03,31,00,13,8.40
2019,03,31,00,14,8.40
2019,03,31,00,15,8.30
2019,03,31,00,16,8.30
2019,03,31,00,17,8.30
2019,03,31,00,18,8.30
2019,03,31,00,19,8.20
2019,03,31,00,20,8.20
2019,03,31,00,21,8.20
2019,03,31,00,22,8.20
2019,03,31,00,23,8.10
2019,03,31,00,24,8.10
2019,03,31,00,25,8.10
2019,03,31,00,26,8.10
2019,03,31,00,27,8.10
2019,03,31,00,28,8.10
2019,03,31,00,29,8.10
2019,03,31,00,30,8.20
2019,03,31,00,31,8.20
2019,03,31,00,32,8.20
2019,03,31,00,33,8.30
2019,03,31,00,34,8.30
2019,03,31,00,35,8.30
2019,03,31,00,36,8.30
2019,03,31,00,37,8.30
2019,03,31,00,38,8.30
2019,03,31,00,39,8.30
2019,03,31,00,40,8.30
2019,03,31,00,41,8.40
2019,03,31,00,42,8.40
2019,03,31,00,43,8.40
2019,03,31,00,44,8.50
2019,03,31,00,45,8.50
2019,03,31,00,46,8.50
2019,03,31,00,47,8.50
2019,03,31,00,48,8.40
2019,03,31,00,49,8.40
2019,03,31,00,50,8.40
2019,03,31,00,51,8.40
2019,03,31,00,52,8.40
2019,03,31,00,53,8.40
2019,03,31,00,54,8.30
2019,03,31,00,55,8.30
2019,03,31,00,56,8.30
2019,03,31,00,57,8.40
2019,03,31,00,58,8.40
2019,03,31,00,59,8.40
2019,03,31,01,00,8.40
2019,03,31,01,01,8.40
2019,03,31,01,02,8.40
2019,03,31,01,03,8.40
2019,03,31,01,04,8.40
2019,03,31,01,05,8.40
2019,03,31,01,06,8.40
2019,03,31,01,07,8.40
2019,03,31,01,08,8.40
2019,03,31,01,09,8.40
2019,03,31,01,10,8.40
2019,03,31,01,11,8.30
2019,03,31,01,12,8.30
2019,03,31,01,13,8.30
2019,03,31,01,14,8.30
2019,03,31,01,15,8.30
2019,03,31,01,16,8.30
2019,03,31,01,17,8.30
2019,03,31,01,18,8.30
2019,03,31,01,19,8.30
2019,03,31,01,20,8.30
2019,03,31,01,21,8.30
2019,03,31,01,22,8.20
2019,03,31,01,23,8.20
2019,03,31,01,24,8.20
2019,03,31,01,25,8.20
2019,03,31,01,26,8.10
2019,03,31,01,27,8.10
2019,03,31,01,28,8.10
2019,03,31,01,29,8.10
2019,03,31,01,30,8.10
2019,03,31,01,31,8.00
2019,03,31,01,32,8.00
2019,03,31,01,33,8.10
2019,03,31,01,34,8.10
2019,03,31,01,35,8.00
2019,03,31,01,36,8.10
2019,03,31,01,37,8.10
2019,03,31,01,38,8.10
2019,03,31,01,39,8.10
2019,03,31,01,40,8.10
2019,03,31,01,41,8.10
2019,03,31,01,42,8.00
2019,03,31,01,43,8.00
2019,03,31,01,44,8.00
2019,03,31,01,45,7.90
2019,03,31,01,46,7.90
2019,03,31,01,47,7.80
2019,03,31,01,48,7.80
2019,03,31,01,49,7.80
2019,03,31,01,50,7.80
2019,03,31,01,51,7.80
2019,03,31,01,52,7.80
2019,03,31,01,53,7.80
2019,03,31,01,54,7.80
2019,03,31,01,55,7.80
2019,03,31,01,56,7.80
2019,03,31,01,57,7.80
2019,03,31,01,58,7.80
2019,03,31,01,59,7.70
2019,03,31,02,00,7.70
2019,03,31,02,01,7.70
2019,03,31,02,02,7.70
2019,03,31,02,03,7.70
2019,03,31,02,04,7.60
2019,03,31,02,05,7.60
2019,03,31,02,06,7.60
2019,03,31,02,07,7.60
2019,03,31,02,08,7.60
2019,03,31,02,09,7.60
2019,03,31,02,10,7.60
2019,03,31,02,11,7.60
2019,03,31,02,12,7.50
2019,03,31,02,13,7.50
2019,03,31,02,14,7.50
2019,03,31,02,15,7.50
2019,03,31,02,16,7.50
2019,03,31,02,17,7.40
2019,03,31,02,18,7.40
2019,03,31,02,19,7.40
2019,03,31,02,20,7.40
2019,03,31,02,21,7.40
2019,03,31,02,22,7.30
2019,03,31,02,23,7.30
2019,03,31,02,24,7.40
2019,03,31,02,25,7.40
2019,03,31,02,26,7.40
2019,03,31,02,27,7.40
2019,03,31,02,28,7.40
2019,03,31,02,29,7.40
2019,03,31,02,30,7.40
2019,03,31,02,31,7.40
2019,03,31,02,32,7.40
2019,03,31,02,33,7.40
2019,03,31,02,34,7.40
2019,03,31,02,35,7.40
2019,03,31,02,36,7.40
2019,03,31,02,37,7.30
2019,03,31,02,38,7.30
2019,03,31,02,39,7.20
2019,03,31,02,40,7.10
2019,03,31,02,41,7.10
2019,03,31,02,42,7.10
2019,03,31,02,43,7.00
2019,03,31,02,44,7.00
2019,03,31,02,45,7.00
2019,03,31,02,46,7.00
2019,03,31,02,47,7.00
2019,03,31,02,48,7.00
2019,03,31,02,49,7.00
2019,03,31,02,50,7.00
2019,03,31,02,51,7.00
2019,03,31,02,52,7.00
2019,03,31,02,53,7.00
2019,03,31,02,54,7.00
2019,03,31,02,55,7.00
2019,03,31,02,56,7.00
2019,03,31,02,57,7.00
2019,03,31,02,58,7.10
2019,03,31,02,59,7.00
2019,03,31,03,00,7.00
2019,03,31,03,01,7.00
2019,03,31,03,02,7.10
2019,03,31,03,03,7.10
2019,03,31,03,04,7.00
2019,03,31,03,05,7.00
2019,03,31,03,06,7.00
2019,03,31,03,07,7.00
2019,03,31,03,08,7.00
2019,03,31,03,09,7.00
2019,03,31,03,10,7.00
2019,03,31,03,11,7.10
2019,03,31,03,12,7.10
2019,03,31,03,13,7.10
2019,03,31,03,14,7.20
2019,03,31,03,15,7.20
2019,03,31,03,16,7.20
2019,03,31,03,17,7.20
2019,03,31,03,18,7.30
2019,03,31,03,19,7.30
2019,03,31,03,20,7.30
2019,03,31,03,21,7.40
2019,03,31,03,22,7.40
2019,03,31,03,23,7.40
2019,03,31,03,24,7.40
2019,03,31,03,25,7.40
2019,03,31,03,26,7.30
2019,03,31,03,27,7.30
2019,03,31,03,28,7.30
2019,03,31,03,29,7.20
2019,03,31,03,30,7.20
2019,03,31,03,31,7.10
2019,03,31,03,32,7.10
2019,03,31,03,33,7.00
2019,03,31,03,34,7.00
2019,03,31,03,35,6.90
2019,03,31,03,36,6.90
2019,03,31,03,37,6.90
2019,03,31,03,38,6.80
2019,03,31,03,39,6.80
2019,03,31,03,40,6.80
2019,03,31,03,41,6.80
2019,03,31,03,42,6.80
2019,03,31,03,43,6.80
2019,03,31,03,44,6.80
2019,03,31,03,45,6.80
2019,03,31,03,46,6.80
2019,03,31,03,47,6.80
2019,03,31,03,48,6.80
2019,03,31,03,49,6.70
2019,03,31,03,50,6.70
2019,03,31,03,51,6.70
2019,03,31,03,52,6.70
2019,03,31,03,53,6.70
2019,03,31,03,54,6.70
2019,03,31,03,55,6.70
2019,03,31,03,56,6.70
2019,03,31,03,57,6.70
2019,03,31,03,58,6.70
2019,03,31,03,59,6.80
2019,03,31,04,00,6.80
2019,03,31,04,01,6.80
2019,03,31,04,02,6.80
2019,03,31,04,03,6.90
2019,03,31,04,04,6.90
2019,03,31,04,05,7.00
2019,03,31,04,06,7.00
2019,03,31,04,07,7.10
2019,03,31,04,08,7.10
2019,03,31,04,09,7.10
2019,03,31,04,10,7.10
2019,03,31,04,11,7.10
2019,03,31,04,12,7.10
2019,03,31,04,13,7.20
2019,03,31,04,14,7.20
2019,03,31,04,15,7.10
2019,03,31,04,16,7.10
2019,03,31,04,17,7.10
2019,03,31,04,18,7.10
2019,03,31,04,19,7.10
2019,03,31,04,20,7.10
2019,03,31,04,21,7.00
2019,03,31,04,22,6.90
2019,03,31,04,23,6.90
2019,03,31,04,24,6.90
2019,03,31,04,25,6.80
2019,03,31,04,26,6.80
2019,03,31,04,27,6.80
2019,03,31,04,28,6.70
2019,03,31,04,29,6.70
2019,03,31,04,30,6.70
2019,03,31,04,31,6.70
2019,03,31,04,32,6.70
2019,03,31,04,33,6.70
2019,03,31,04,34,6.70
2019,03,31,04,35,6.60
2019,03,31,04,36,6.60
2019,03,31,04,37,6.60
2019,03,31,04,38,6.50
2019,03,31,04,39,6.50
2019,03,31,04,40,6.50
2019,03,31,04,41,6.40
2019,03,31,04,42,6.40
2019,03,31,04,43,6.40
2019,03,31,04,44,6.40
2019,03,31,04,45,6.40
2019,03,31,04,46,6.40
2019,03,31,04,47,6.40
2019,03,31,04,48,6.40
2019,03,31,04,49,6.40
2019,03,31,04,50,6.40
2019,03,31,04,51,6.50
2019,03,31,04,52,6.50
2019,03,31,04,53,6.50
2019,03,31,04,54,6.50
2019,03,31,04,55,6.50
2019,03,31,04,56,6.60
2019,03,31,04,57,6.60
2019,03,31,04,58,6.60
2019,03,31,04,59,6.60
2019,03,31,05,00,6.70
2019,03,31,05,01,6.70
2019,03,31,05,02,6.70
2019,03,31,05,03,6.70
2019,03,31,05,04,6.80
2019,03,31,05,05,6.80
2019,03,31,05,06,6.90
2019,03,31,05,07,6.90
2019,03,31,05,08,6.90
2019,03,31,05,09,6.90
2019,03,31,05,10,6.90
2019,03,31,05,11,7.00
2019,03,31,05,12,6.90
2019,03,31,05,13,6.90
2019,03,31,05,14,6.90
2019,03,31,05,15,6.90
2019,03,31,05,16,6.90
2019,03,31,05,17,6.80
2019,03,31,05,18,6.80
2019,03,31,05,19,6.80
2019,03,31,05,20,6.80
2019,03,31,05,21,6.80
2019,03,31,05,22,6.80
2019,03,31,05,23,6.80
2019,03,31,05,24,6.80
2019,03,31,05,25,6.80
2019,03,31,05,26,6.80
2019,03,31,05,27,6.80
2019,03,31,05,28,6.80
2019,03,31,05,29,6.90
2019,03,31,05,30,6.90
2019,03,31,05,31,6.90
2019,03,31,05,32,6.90
2019,03,31,05,33,6.90
2019,03,31,05,34,7.00
2019,03,31,05,35,7.00
2019,03,31,05,36,7.10
2019,03,31,05,37,7.10
2019,03,31,05,38,7.00
2019,03,31,05,39,7.00
2019,03,31,05,40,6.90
2019,03,31,05,41,6.90
2019,03,31,05,42,6.90
2019,03,31,05,43,6.80
2019,03,31,05,44,6.80
2019,03,31,05,45,6.80
2019,03,31,05,46,6.80
2019,03,31,05,47,6.70
2019,03,31,05,48,6.70
2019,03,31,05,49,6.70
2019,03,31,05,50,6.60
2019,03,31,05,51,6.60
2019,03,31,05,52,6.60
2019,03,31,05,53,6.60
2019,03,31,05,54,6.60
2019,03,31,05,55,6.60
2019,03,31,05,56,6.60
2019,03,31,05,57,6.60
2019,03,31,05,58,6.60
2019,03,31,05,59,6.60
2019,03,31,06,00,6.60
2019,03,31,06,01,6.60
2019,03,31,06,02,6.60
2019,03,31,06,03,6.50
2019,03,31,06,04,6.50
2019,03,31,06,05,6.40
2019,03,31,06,06,6.30
2019,03,31,06,07,6.30
2019,03,31,06,08,6.20
2019,03,31,06,09,6.20
2019,03,31,06,10,6.20
2019,03,31,06,11,6.20
2019,03,31,06,12,6.20
2019,03,31,06,13,6.20
2019,03,31,06,14,6.20
2019,03,31,06,15,6.20
2019,03,31,06,16,6.20
2019,03,31,06,17,6.20
2019,03,31,06,18,6.20
2019,03,31,06,19,6.20
2019,03,31,06,20,6.20
2019,03,31,06,21,6.20
2019,03,31,06,22,6.20
2019,03,31,06,23,6.20
2019,03,31,06,24,6.20
2019,03,31,06,25,6.20
2019,03,31,06,26,6.20
2019,03,31,06,27,6.10
2019,03,31,06,28,6.10
2019,03,31,06,29,6.10
2019,03,31,06,30,6.10
2019,03,31,06,31,6.10
2019,03,31,06,32,6.10
2019,03,31,06,33,6.10
2019,03,31,06,34,6.10
2019,03,31,06,35,6.00
2019,03,31,06,36,6.00
2019,03,31,06,37,5.90
2019,03,31,06,38,5.90
2019,03,31,06,39,5.90
2019,03,31,06,40,5.80
2019,03,31,06,41,5.80
2019,03,31,06,42,5.80
2019,03,31,06,43,5.90
2019,03,31,06,44,5.90
2019,03,31,06,45,6.00
2019,03,31,06,46,6.00
2019,03,31,06,47,6.00
2019,03,31,06,48,6.00
2019,03,31,06,49,6.00
2019,03,31,06,50,6.10
2019,03,31,06,51,6.10
2019,03,31,06,52,6.00
2019,03,31,06,53,6.00
2019,03,31,06,54,6.10
2019,03,31,06,55,6.00
2019,03,31,06,56,6.00
2019,03,31,06,57,6.00
2019,03,31,06,58,6.00
2019,03,31,06,59,6.00
2019,03,31,07,00,5.90
2019,03,31,07,01,5.90
2019,03,31,07,02,5.90
2019,03,31,07,03,5.90
2019,03,31,07,04,5.90
2019,03,31,07,05,5.90
2019,03,31,07,06,5.90
2019,03,31,07,07,5.90
2019,03,31,07,08,5.90
2019,03,31,07,09,5.90
2019,03,31,07,10,5.90
2019,03,31,07,11,5.80
2019,03,31,07,12,5.80
2019,03,31,07,13,5.70
2019,03,31,07,14,5.70
2019,03,31,07,15,5.70
2019,03,31,07,16,5.70
2019,03,31,07,17,5.70
2019,03,31,07,18,5.70
2019,03,31,07,19,5.70
2019,03,31,07,20,5.80
2019,03,31,07,21,5.80
2019,03,31,07,22,5.80
2019,03,31,07,23,5.80
2019,03,31,07,24,5.80
2019,03,31,07,25,5.80
2019,03,31,07,26,5.90
2019,03,31,07,27,5.90
2019,03,31,07,28,6.00
2019,03,31,07,29,6.00
2019,03,31,07,30,6.10
2019,03,31,07,31,6.10
2019,03,31,07,32,6.10
2019,03,31,07,33,6.10
2019,03,31,07,34,6.10
2019,03,31,07,35,6.10
2019,03,31,07,36,6.20
2019,03,31,07,37,6.20
2019,03,31,07,38,6.20
2019,03,31,07,39,6.30
2019,03,31,07,40,6.30
2019,03,31,07,41,6.30
2019,03,31,07,42,6.30
2019,03,31,07,43,6.30
2019,03,31,07,44,6.30
2019,03,31,07,45,6.40
2019,03,31,07,46,6.40
2019,03,31,07,47,6.50
2019,03,31,07,48,6.50
2019,03,31,07,49,6.60
2019,03,31,07,50,6.70
2019,03,31,07,51,6.70
2019,03,31,07,52,6.70
2019,03,31,07,53,6.80
2019,03,31,07,54,6.80
2019,03,31,07,55,6.90
2019,03,31,07,56,6.90
2019,03,31,07,57,7.00
2019,03,31,07,58,7.10
2019,03,31,07,59,7.10
2019,03,31,08,00,7.20
2019,03,31,08,01,7.30
2019,03,31,08,02,7.40
2019,03,31,08,03,7.40
2019,03,31,08,04,7.50
2019,03,31,08,05,7.50
2019,03,31,08,06,7.60
2019,03,31,08,07,7.70
2019,03,31,08,08,7.80
2019,03,31,08,09,7.80
2019,03,31,08,10,7.90
2019,03,31,08,11,8.00
2019,03,31,08,12,8.10
2019,03,31,08,13,8.20
2019,03,31,08,14,8.30
2019,03,31,08,15,8.40
2019,03,31,08,16,8.50
2019,03,31,08,17,8.60
2019,03,31,08,18,8.60
2019,03,31,08,19,8.70
2019,03,31,08,20,8.80
2019,03,31,08,21,8.90
2019,03,31,08,22,9.00
2019,03,31,08,23,9.00
2019,03,31,08,24,9.10
2019,03,31,08,25,9.20
2019,03,31,08,26,9.30
2019,03,31,08,27,9.30
2019,03,31,08,28,9.40
2019,03,31,08,29,9.50
2019,03,31,08,30,9.60
2019,03,31,08,31,9.70
2019,03,31,08,32,9.80
2019,03,31,08,33,9.90
2019,03,31,08,34,9.90
2019,03,31,08,35,10.00
2019,03,31,08,36,10.10
2019,03,31,08,37,10.20
2019,03,31,08,38,10.30
2019,03,31,08,39,10.40
2019,03,31,08,40,10.50
2019,03,31,08,41,10.50
2019,03,31,08,42,10.60
2019,03,31,08,43,10.60
2019,03,31,08,44,10.70
2019,03,31,08,45,10.70
2019,03,31,08,46,10.70
2019,03,31,08,47,10.70
2019,03,31,08,48,10.70
2019,03,31,08,49,10.70
2019,03,31,08,50,10.70
2019,03,31,08,51,10.70
2019,03,31,08,52,10.70
2019,03,31,08,53,10.70
2019,03,31,08,54,10.70
2019,03,31,08,55,10.80
2019,03,31,08,56,10.80
2019,03,31,08,57,10.80
2019,03,31,08,58,10.80
2019,03,31,08,59,10.80
2019,03,31,09,00,10.80
2019,03,31,09,01,10.90
2019,03,31,09,02,10.90
2019,03,31,09,03,10.90
2019,03,31,09,04,10.90
2019,03,31,09,05,10.90
2019,03,31,09,06,10.90
2019,03,31,09,07,10.90
2019,03,31,09,08,10.90
2019,03,31,09,09,10.90
2019,03,31,09,10,10.80
2019,03,31,09,11,10.80
2019,03,31,09,12,10.80
2019,03,31,09,13,10.80
2019,03,31,09,14,10.80
2019,03,31,09,15,10.80
2019,03,31,09,16,10.80
2019,03,31,09,17,10.80
2019,03,31,09,18,10.80
2019,03,31,09,19,10.70
2019,03,31,09,20,10.70
2019,03,31,09,21,10.70
2019,03,31,09,22,10.70
2019,03,31,09,23,10.70
2019,03,31,09,24,10.60
2019,03,31,09,25,10.70
2019,03,31,09,26,10.70
2019,03,31,09,27,10.70
2019,03,31,09,28,10.70
2019,03,31,09,29,10.70
2019,03,31,09,30,10.80
2019,03,31,09,31,10.90
2019,03,31,09,32,10.90
2019,03,31,09,33,11.00
2019,03,31,09,34,11.00
2019,03,31,09,35,11.00
2019,03,31,09,36,10.90
2019,03,31,09,37,10.90
2019,03,31,09,38,10.90
2019,03,31,09,39,11.00
2019,03,31,09,40,11.00
2019,03,31,09,41,11.10
2019,03,31,09,42,11.10
2019,03,31,09,43,11.10
2019,03,31,09,44,11.20
2019,03,31,09,45,11.20
2019,03,31,09,46,11.20
2019,03,31,09,47,11.20
2019,03,31,09,48,11.20
2019,03,31,09,49,11.20
2019,03,31,09,50,11.20
2019,03,31,09,51,11.10
2019,03,31,09,52,11.10
2019,03,31,09,53,11.10
2019,03,31,09,54,11.10
2019,03,31,09,55,11.10
2019,03,31,09,56,11.10
2019,03,31,09,57,11.20
2019,03,31,09,58,11.20
2019,03,31,09,59,11.20
2019,03,31,10,00,11.20
2019,03,31,10,01,11.20
2019,03,31,10,02,11.20
2019,03,31,10,03,11.20
2019,03,31,10,04,11.30
2019,03,31,10,05,11.30
2019,03,31,10,06,11.40
2019,03,31,10,07,11.30
2019,03,31,10,08,11.30
2019,03,31,10,09,11.30
2019,03,31,10,10,11.30
2019,03,31,10,11,11.30
2019,03,31,10,12,11.30
2019,03,31,10,13,11.30
2019,03,31,10,14,11.30
2019,03,31,10,15,11.30
2019,03,31,10,16,11.30
2019,03,31,10,17,11.30
2019,03,31,10,18,11.30
2019,03,31,10,19,11.20
2019,03,31,10,20,11.20
2019,03,31,10,21,11.10
2019,03,31,10,22,11.10
2019,03,31,10,23,11.10
2019,03,31,10,24,11.10
2019,03,31,10,25,11.10
2019,03,31,10,26,11.20
2019,03,31,10,27,11.20
2019,03,31,10,28,11.20
2019,03,31,10,29,11.30
2019,03,31,10,30,11.30
2019,03,31,10,31,11.40
2019,03,31,10,32,11.40
2019,03,31,10,33,11.40
2019,03,31,10,34,11.40
2019,03,31,10,35,11.40
2019,03,31,10,36,11.50
2019,03,31,10,37,11.50
2019,03,31,10,38,11.40
2019,03,31,10,39,11.40
2019,03,31,10,40,11.40
2019,03,31,10,41,11.30
2019,03,31,10,42,11.30
2019,03,31,10,43,11.30
2019,03,31,10,44,11.30
2019,03,31,10,45,11.30
2019,03,31,10,46,11.30
2019,03,31,10,47,11.30
2019,03,31,10,48,11.30
2019,03,31,10,49,11.30
2019,03,31,10,50,11.30
2019,03,31,10,51,11.30
2019,03,31,10,52,11.30
2019,03,31,10,53,11.30
2019,03,31,10,54,11.30
2019,03,31,10,55,11.30
2019,03,31,10,56,11.30
2019,03,31,10,57,11.30
2019,03,31,10,58,11.40
2019,03,31,10,59,11.40
2019,03,31,11,00,11.30
2019,03,31,11,01,11.30
2019,03,31,11,02,11.30
2019,03,31,11,03,11.30
2019,03,31,11,04,11.20
2019,03,31,11,05,11.20
2019,03,31,11,06,11.20
2019,03,31,11,07,11.20
2019,03,31,11,08,11.30
2019,03,31,11,09,11.30
2019,03,31,11,10,11.30
2019,03,31,11,11,11.30
2019,03,31,11,12,11.30
2019,03,31,11,13,11.30
2019,03,31,11,14,11.40
2019,03,31,11,15,11.40
2019,03,31,11,16,11.40
2019,03,31,11,17,11.40
2019,03,31,11,18,11.40
2019,03,31,11,19,11.40
2019,03,31,11,20,11.40
2019,03,31,11,21,11.40
2019,03,31,11,22,11.40
2019,03,31,11,23,11.40
2019,03,31,11,24,11.40
2019,03,31,11,25,11.40
2019,03,31,11,26,11.40
2019,03,31,11,27,11.40
2019,03,31,11,28,11.40
2019,03,31,11,29,11.40
2019,03,31,11,30,11.50
2019,03,31,11,31,11.50
2019,03,31,11,32,11.60
2019,03,31,11,33,11.60
2019,03,31,11,34,11.60
2019,03,31,11,35,11.60
2019,03,31,11,36,11.60
2019,03,31,11,37,11.50
2019,03,31,11,38,11.50
2019,03,31,11,39,11.40
2019,03,31,11,40,11.40
2019,03,31,11,41,11.50
2019,03,31,11,42,11.40
2019,03,31,11,43,11.40
2019,03,31,11,44,11.40
2019,03,31,11,45,11.40
2019,03,31,11,46,11.50
2019,03,31,11,47,11.60
2019,03,31,11,48,11.60
2019,03,31,11,49,11.60
2019,03,31,11,50,11.60
2019,03,31,11,51,11.70
2019,03,31,11,52,11.70
2019,03,31,11,53,11.70
2019,03,31,11,54,11.70
2019,03,31,11,55,11.70
2019,03,31,11,56,11.80
2019,03,31,11,57,11.80
2019,03,31,11,58,11.90
2019,03,31,11,59,12.00
2019,03,31,12,00,12.00
2019,03,31,12,01,12.00
2019,03,31,12,02,12.10
2019,03,31,12,03,12.10
2019,03,31,12,04,12.00
2019,03,31,12,05,12.00
2019,03,31,12,06,12.00
2019,03,31,12,07,12.00
2019,03,31,12,08,11.90
2019,03,31,12,09,11.90
2019,03,31,12,10,11.80
2019,03,31,12,11,11.80
2019,03,31,12,12,11.80
2019,03,31,12,13,11.80
2019,03,31,12,14,11.80
2019,03,31,12,15,11.80
2019,03,31,12,16,11.80
2019,03,31,12,17,11.80
2019,03,31,12,18,11.80
2019,03,31,12,19,11.80
2019,03,31,12,20,11.90
2019,03,31,12,21,11.90
2019,03,31,12,22,11.90
2019,03,31,12,23,11.90
2019,03,31,12,24,11.90
2019,03,31,12,25,11.90
2019,03,31,12,26,11.90
2019,03,31,12,27,11.90
2019,03,31,12,28,11.90
2019,03,31,12,29,12.00
2019,03,31,12,30,11.90
2019,03,31,12,31,11.90
2019,03,31,12,32,11.80
2019,03,31,12,33,11.80
2019,03,31,12,34,11.80
2019,03,31,12,35,11.80
2019,03,31,12,36,11.90
2019,03,31,12,37,11.90
2019,03,31,12,38,11.90
2019,03,31,12,39,12.00
2019,03,31,12,40,12.10
2019,03,31,12,41,12.10
2019,03,31,12,42,12.20
2019,03,31,12,43,12.20
2019,03,31,12,44,12.20
2019,03,31,12,45,12.20
2019,03,31,12,46,12.20
2019,03,31,12,47,12.30
2019,03,31,12,48,12.30
2019,03,31,12,49,12.30
2019,03,31,12,50,12.30
2019,03,31,12,51,12.30
2019,03,31,12,52,12.40
2019,03,31,12,53,12.40
2019,03,31,12,54,12.40
2019,03,31,12,55,12.40
2019,03,31,12,56,12.50
2019,03,31,12,57,12.50
2019,03,31,12,58,12.60
2019,03,31,12,59,12.60
2019,03,31,13,00,12.70
2019,03,31,13,01,12.70
2019,03,31,13,02,12.70
2019,03,31,13,03,12.70
2019,03,31,13,04,12.80
2019,03,31,13,05,12.80
2019,03,31,13,06,12.80
2019,03,31,13,07,12.90
2019,03,31,13,08,12.90
2019,03,31,13,09,12.90
2019,03,31,13,10,12.90
2019,03,31,13,11,12.90
2019,03,31,13,12,12.90
2019,03,31,13,13,12.80
2019,03,31,13,14,12.80
2019,03,31,13,15,12.70
2019,03,31,13,16,12.70
2019,03,31,13,17,12.70
2019,03,31,13,18,12.80
2019,03,31,13,19,12.70
2019,03,31,13,20,12.70
2019,03,31,13,21,12.70
2019,03,31,13,22,12.70
2019,03,31,13,23,12.80
2019,03,31,13,24,12.90
2019,03,31,13,25,12.90
2019,03,31,13,26,13.00
2019,03,31,13,27,13.00
2019,03,31,13,28,12.90
2019,03,31,13,29,12.90
2019,03,31,13,30,12.90
2019,03,31,13,31,12.80
2019,03,31,13,32,12.80
2019,03,31,13,33,12.70
2019,03,31,13,34,12.70
2019,03,31,13,35,12.70
2019,03,31,13,36,12.70
2019,03,31,13,37,12.60
2019,03,31,13,38,12.60
2019,03,31,13,39,12.60
2019,03,31,13,40,12.60
2019,03,31,13,41,12.60
2019,03,31,13,42,12.60
2019,03,31,13,43,12.60
2019,03,31,13,44,12.60
2019,03,31,13,45,12.60
2019,03,31,13,46,12.60
2019,03,31,13,47,12.60
2019,03,31,13,48,12.60
2019,03,31,13,49,12.50
2019,03,31,13,50,12.50
2019,03,31,13,51,12.40
2019,03,31,13,52,12.50
2019,03,31,13,53,12.50
2019,03,31,13,54,12.60
2019,03,31,13,55,12.70
2019,03,31,13,56,12.80
2019,03,31,13,57,12.80
2019,03,31,13,58,12.90
2019,03,31,13,59,12.90
2019,03,31,14,00,12.90
2019,03,31,14,01,13.00
2019,03,31,14,02,13.00
2019,03,31,14,03,13.10
2019,03,31,14,04,13.10
2019,03,31,14,05,13.20
2019,03,31,14,06,13.20
2019,03,31,14,07,13.20
2019,03,31,14,08,13.30
2019,03,31,14,09,13.30
2019,03,31,14,10,13.40
2019,03,31,14,11,13.40
2019,03,31,14,12,13.40
2019,03,31,14,13,13.40
2019,03,31,14,14,13.40
2019,03,31,14,15,13.40
2019,03,31,14,16,13.40
2019,03,31,14,17,13.50
2019,03,31,14,18,13.50
2019,03,31,14,19,13.60
2019,03,31,14,20,13.70
2019,03,31,14,21,13.70
2019,03,31,14,22,13.80
2019,03,31,14,23,13.90
2019,03,31,14,24,14.00
2019,03,31,14,25,14.10
2019,03,31,14,26,14.10
2019,03,31,14,27,14.10
2019,03,31,14,28,14.10
2019,03,31,14,29,14.10
2019,03,31,14,30,14.20
2019,03,31,14,31,14.20
2019,03,31,14,32,14.20
2019,03,31,14,33,14.30
2019,03,31,14,34,14.30
2019,03,31,14,35,14.30
2019,03,31,14,36,14.20
2019,03,31,14,37,14.20
2019,03,31,14,38,14.20
2019,03,31,14,39,14.20
2019,03,31,14,40,14.10
2019,03,31,14,41,14.10
2019,03,31,14,42,14.10
2019,03,31,14,43,14.10
2019,03,31,14,44,14.10
2019,03,31,14,45,14.10
2019,03,31,14,46,14.20
2019,03,31,14,47,14.20
2019,03,31,14,48,14.30
2019,03,31,14,49,14.30
2019,03,31,14,50,14.40
2019,03,31,14,51,14.40
2019,03,31,14,52,14.40
2019,03,31,14,53,14.30
2019,03,31,14,54,14.30
2019,03,31,14,55,14.30
2019,03,31,14,56,14.20
2019,03,31,14,57,14.20
2019,03,31,14,58,14.20
2019,03,31,14,59,14.20
2019,03,31,15,00,14.10
2019,03,31,15,01,14.10
2019,03,31,15,02,14.20
2019,03,31,15,03,14.20
2019,03,31,15,04,14.20
2019,03,31,15,05,14.20
2019,03,31,15,06,14.20
2019,03,31,15,07,14.20
2019,03,31,15,08,14.20
2019,03,31,15,09,14.20
2019,03,31,15,10,14.20
2019,03,31,15,11,14.20
2019,03,31,15,12,14.20
2019,03,31,15,13,14.20
2019,03,31,15,14,14.20
2019,03,31,15,15,14.10
2019,03,31,15,16,14.20
2019,03,31,15,17,14.20
2019,03,31,15,18,14.30
2019,03,31,15,19,14.30
2019,03,31,15,20,14.30
2019,03,31,15,21,14.40
2019,03,31,15,22,14.30
2019,03,31,15,23,14.30
2019,03,31,15,24,14.30
2019,03,31,15,25,14.30
2019,03,31,15,26,14.40
2019,03,31,15,27,14.40
2019,03,31,15,28,14.50
2019,03,31,15,29,14.60
2019,03,31,15,30,14.60
2019,03,31,15,31,14.70
2019,03,31,15,32,14.60
2019,03,31,15,33,14.60
2019,03,31,15,34,14.60
2019,03,31,15,35,14.60
2019,03,31,15,36,14.50
2019,03,31,15,37,14.50
2019,03,31,15,38,14.40
2019,03,31,15,39,14.40
2019,03,31,15,40,14.30
2019,03,31,15,41,14.30
2019,03,31,15,42,14.30
2019,03,31,15,43,14.40
2019,03,31,15,44,14.40
2019,03,31,15,45,14.40
2019,03,31,15,46,14.40
2019,03,31,15,47,14.40
2019,03,31,15,48,14.40
2019,03,31,15,49,14.40
2019,03,31,15,50,14.40
2019,03,31,15,51,14.40
2019,03,31,15,52,14.40
2019,03,31,15,53,14.40
2019,03,31,15,54,14.40
2019,03,31,15,55,14.50
2019,03,31,15,56,14.50
2019,03,31,15,57,14.60
2019,03,31,15,58,14.50
2019,03,31,15,59,14.50
2019,03,31,16,00,14.50
2019,03,31,16,01,14.50
2019,03,31,16,02,14.50
2019,03,31,16,03,14.60
2019,03,31,16,04,14.60
2019,03,31,16,05,14.60
2019,03,31,16,06,14.70
2019,03,31,16,07,14.70
2019,03,31,16,08,14.70
2019,03,31,16,09,14.70
2019,03,31,16,10,14.70
2019,03,31,16,11,14.70
2019,03,31,16,12,14.80
2019,03,31,16,13,14.80
2019,03,31,16,14,14.80
2019,03,31,16,15,14.90
2019,03,31,16,16,14.90
2019,03,31,16,17,14.90
2019,03,31,16,18,14.90
2019,03,31,16,19,14.90
2019,03,31,16,20,15.00
2019,03,31,16,21,15.00
2019,03,31,16,22,15.10
2019,03,31,16,23,15.10
2019,03,31,16,24,15.00
2019,03,31,16,25,15.00
2019,03,31,16,26,15.00
2019,03,31,16,27,14.90
2019,03,31,16,28,14.90
2019,03,31,16,29,14.80
2019,03,31,16,30,14.80
2019,03,31,16,31,14.80
2019,03,31,16,32,14.80
2019,03,31,16,33,14.90
2019,03,31,16,34,14.90
2019,03,31,16,35,14.90
2019,03,31,16,36,14.90
2019,03,31,16,37,14.90
2019,03,31,16,38,14.90
2019,03,31,16,39,14.90
2019,03,31,16,40,14.90
2019,03,31,16,41,14.90
2019,03,31,16,42,15.00
2019,03,31,16,43,15.00
2019,03,31,16,44,15.00
2019,03,31,16,45,15.00
2019,03,31,16,46,15.10
2019,03,31,16,47,15.10
2019,03,31,16,48,15.20
2019,03,31,16,49,15.20
2019,03,31,16,50,15.30
2019,03,31,16,51,15.30
2019,03,31,16,52,15.40
2019,03,31,16,53,15.40
2019,03,31,16,54,15.40
2019,03,31,16,55,15.40
2019,03,31,16,56,15.40
2019,03,31,16,57,15.40
2019,03,31,16,58,15.40
2019,03,31,16,59,15.50
2019,03,31,17,00,15.50
2019,03,31,17,01,15.50
2019,03,31,17,02,15.60
2019,03,31,17,03,15.60
2019,03,31,17,04,15.60
2019,03,31,17,05,15.60
2019,03,31,17,06,15.60
2019,03,31,17,07,15.60
2019,03,31,17,08,15.60
2019,03,31,17,09,15.60
2019,03,31,17,10,15.50
2019,03,31,17,11,15.60
2019,03,31,17,12,15.60
2019,03,31,17,13,15.60
2019,03,31,17,14,15.70
2019,03,31,17,15,15.70
2019,03,31,17,16,15.60
2019,03,31,17,17,15.60
2019,03,31,17,18,15.60
2019,03,31,17,19,15.60
2019,03,31,17,20,15.60
2019,03,31,17,21,15.50
2019,03,31,17,22,15.40
2019,03,31,17,23,15.40
2019,03,31,17,24,15.30
2019,03,31,17,25,15.30
2019,03,31,17,26,15.30
2019,03,31,17,27,15.30
2019,03,31,17,28,15.30
2019,03,31,17,29,15.20
2019,03,31,17,30,15.20
2019,03,31,17,31,15.20
2019,03,31,17,32,15.20
2019,03,31,17,33,15.20
2019,03,31,17,34,15.10
2019,03,31,17,35,15.10
2019,03,31,17,36,15.10
2019,03,31,17,37,15.10
2019,03,31,17,38,15.10
2019,03,31,17,39,15.10
2019,03,31,17,40,15.10
2019,03,31,17,41,15.20